{"data":{"norad_id":64670,"intl_designator":"2025-139G","name":"STARLINK-34287","alt_names":[],"object_type":"PAYLOAD","status":"ACTIVE","operator":null,"country":"US","launch_date":"2025-06-28","launch_site_code":"AFETR","launch_vehicle":null,"mission":null,"orbit_class":"UNKNOWN","rcs_meters":null,"size_class":null,"mass_kg":null,"dimensions":null,"purposes":["comms"],"wikipedia_slug":null,"has_3d_model":false,"image_url":null,"decayed_at":null,"tle_current":{"epoch":"2026-05-25T05:17:54.752640Z","epoch_age_seconds":46165,"freshness":"FRESH","line1":"1 64670U 25139G   26145.22077260  .00025167  00000+0  75296-3 0  9999","line2":"2 64670  53.1599 130.6933 0003235  95.9370 264.2002 15.34419781 52015","mean_motion":15.34419781,"eccentricity":0.0003235,"inclination_deg":53.1599,"raan_deg":130.6933,"arg_perigee_deg":95.937,"mean_anomaly_deg":264.2002,"bstar":0.00075296,"rev_number":5201,"period_min":93.846548241286,"perigee_km":460.43145473978,"apogee_km":464.85744033634,"semimajor_km":6840.7814475381,"source":"CELESTRAK","updated_at":"2026-05-25T13:38:20.502721Z"}}}